Regional Weather Roundup
Issued by NWS

Home | Current Version | Previous Version | Text Only | Print | Product List | Glossary Off
Versions: 1 2 3 4 5 6 7 8 9 10 11 12 13 14 15 16 17 18 19 20 21 22 23 24 25 26 27

000
ASUS45 KBOU 240807
RWRCO

WEATHER ROUNDUP FOR COLORADO
NATIONAL WEATHER SERVICE DENVER/BOULDER CO
200 AM MDT SUN SEP 24 2017

NOTE: "FAIR" INDICATES FEW OR NO CLOUDS BELOW 12000 FEET WITH NO
SIGNIFICANT WEATHER AND/OR OBSTRUCTIONS TO VISIBILITY.

COZ001>005-013-030-031-240900-
...NORTHWEST COLORADO...

CITY           SKY/WX    TMP DP  RH WIND       PRES   REMARKS
CRAIG          FAIR      41  37  86 E9        29.87F
HAYDEN         FAIR      40  36  86 SE8       29.90S
MEEKER         FAIR      39  37  92 NE3       29.90R
RABBIT EARS PA CLOUDY    32  32 100 SE7       30.04S FOG     WCI  26
STEAMBOAT SPGS FAIR      34  34  97 CALM      29.91S
WALDEN         MOCLDY    34  32  93 CALM      29.98F VSB 3/4
$$

COZ006>008-011-240900-
...WEST CENTRAL VALLEYS...

CITY           SKY/WX    TMP DP  RH WIND       PRES   REMARKS
GRAND JUNCTION FAIR      44  43  96 SW3       29.81R
MONTROSE       FAIR      41  40  96 SE6       29.87S
EAGLE          FAIR      36  34  92 CALM      29.95S
RIFLE          FAIR      41  40  96 E7        29.86R
DELTA          NOT AVBL
NUCLA          FAIR      46  37  71 CALM      29.88R
$$

COZ017>023-064>068-240900-
...SOUTHWEST COLORADO...

CITY           SKY/WX    TMP DP  RH WIND       PRES   REMARKS
DURANGO        FAIR      38  38 100 NE5       29.92S
CORTEZ         FAIR      43  40  89 NE3       29.88R
PAGOSA SPRINGS MOCLDY    40  39  99 CALM      29.97S
TELLURIDE      FAIR      41  30  64 CALM      29.99S
WOLF CREEK PAS CLOUDY    30  30 100 S16G26    30.15S WCI  19
$$

COZ009-010-012-014-032>034-037-058>063-240900-
...CENTRAL COLORADO...

CITY           SKY/WX    TMP DP  RH WIND       PRES   REMARKS
ASPEN          FAIR      36  33  89 SW6       29.92S
BUENA VISTA    CLOUDY    40  36  86 W5        29.99R
COPPER MTN     FAIR      34  21  60 MISG      30.10F
BERTHOUD PASS  HAZE      25  18  74 S12G24    30.13S VSB 1/2 WCI  14
COTTONWOOD PAS CLOUDY    43  37  81 CALM      30.05R
GUNNISON       FAIR      35  32  88 NE7       29.96S WCI  29
KREMMLING      CLOUDY    37  36  93 CALM      29.98F
LEADVILLE      MOCLDY    32  30  92 NE7       30.02F WCI  26
MONARCH PASS   FAIR      32  30  93 S16G23    30.22R WCI  21
SALIDA         MOCLDY    46  42  86 SW7       30.04R
SUNLIGHT       MOCLDY    32  30  93 SE7       30.06S WCI  26
WILKERSON PASS MOCLDY    32  32 100 SW6       30.12F FOG     WCI  26
$$

COZ069>075-240900-
...SAN LUIS VALLEY/SANGRE DE CRISTO MOUNTAINS...

CITY           SKY/WX    TMP DP  RH WIND       PRES   REMARKS
ALAMOSA        CLOUDY    41  39  93 SW5       29.97R
DEL NORTE      FAIR      36  35  94 W10       29.99S
LA VETA PASS   FOG       37  36  93 S5        30.19S VSB<1/4
SAGUACHE       CLOUDY    41  41 100 W3        29.98F
$$

COZ035-036-038>040-240900-
...NORTHERN COLORADO FRONT RANGE...

CITY           SKY/WX    TMP DP  RH WIND       PRES   REMARKS
DENVER INTL AP CLOUDY    45  42  89 CALM      29.99S
DMNS CITY PARK   N/A     45  45  99 E2G9      29.98F
AURORA         CLOUDY    44  44 100 CALM      29.99F
FRONT RANGE AP CLOUDY    45  45 100 N6        29.99F FOG
ERIE MUNI ARPT CLOUDY    46  44  94 CALM      30.04F
BOULDER MUN AP CLOUDY    45  45 100 CALM      29.98F FOG
CENTENNIAL     CLOUDY    44  43  96 NE3       29.99F
BROOMFIELD     CLOUDY    45  45 100 CALM      29.99F
FORT COLLINS   CLOUDY    46  44  93 S5        30.00S
LONGMONT       CLOUDY    48  46  91 CALM      30.01F
$$

COZ041-046-047-076>085-087-088-240900-
...PIKES PEAK/PALMER DIVIDE AND SOUTHERN FOOTHILLS...

CITY           SKY/WX    TMP DP  RH WIND       PRES   REMARKS
COLO. SPRINGS  CLOUDY    47  42  83 NW10      29.98F
A. F. ACADEMY  CLOUDY    43  42  96 N10       29.99F
SCHRIEVER AFB  LGT RAIN  44  41  90 MISG      29.97S
CHEYENNE MTN   CLOUDY    44  40  86 N15       29.92F
ELLICOTT       CLOUDY   N/A N/A N/A N9        29.95S
FALCON         CLOUDY    42  40  93 N12G18    29.99S
FORT CARSON    CLOUDY    46  43  87 N16       29.94S
LIMON            N/A    N/A N/A N/A MISG      29.93R
MONUMENT HILL  CLOUDY    37  37 100 N7        30.01F FOG
CANON CITY     CLOUDY    52  46  82 SE9       29.94S
WALSENBURG     CLOUDY    46  45  93 N9        29.97R
TRINIDAD       CLOUDY    49  32  52 NW17      29.94R HAZE
$$

COZ042>045-048>051-090-091-240900-
...NORTHEAST COLORADO...

CITY           SKY/WX    TMP DP  RH WIND       PRES   REMARKS
GREELEY ARPT   CLOUDY    47  45  93 W6        29.99F
AKRON          MOCLDY    45  43  93 N10       29.91F
BURLINGTON     LGT RAIN  49  48  97 N10       29.89F
WRAY           DRIZZLE  N/A N/A N/A N15G21    29.90F
YUMA           CLOUDY    46  45  93 N10       29.89F
STERLING       LGT RAIN  45  45 100 NE10      29.88F
HOLYOKE        LGT RAIN  48  45  87 NE10      29.92F
FORT MORGAN    CLOUDY    46  44  93 W8        29.97S
$$

COZ086-089-092>099-240900-
...SOUTHEAST COLORADO...

CITY           SKY/WX    TMP DP  RH WIND       PRES   REMARKS
PUEBLO         CLOUDY    51  46  83 NE6       29.93S
LA JUNTA       CLOUDY    53  50  89 N8        29.91R
LAMAR          LGT RAIN  53  51  93 E8        29.86S
SPRINGFIELD      N/A     55  55 100 S14       29.94R
$$




USA.gov is the U.S. government's official web portal to all federal, state and local government web resources and services.